When you browse on this site, cookies collect data to enhance your experience and personalize the content and advertising you see.
Visit our Privacy Policy to learn more. By continuing to use the site, you agree to this use of cookies and data.

Hourly Weather Oyem

Today, 12 July, Sunday

Time Temperature Precipitation Wind Pressure Humidity
00:00 +22°C° 0 mm 1 mps 704 mmHg 99%
01:00 +21°C° 0 mm 1 mps 704 mmHg 99%
02:00 +22°C° 0 mm 1 mps 704 mmHg 99%
03:00 +22°C° 0 mm 1 mps 704 mmHg 98%
04:00 +22°C° 0 mm 1 mps 704 mmHg 97%
05:00 +22°C° 0 mm 1 mps 704 mmHg 97%
06:00 +22°C° 0 mm 1 mps 704 mmHg 96%
07:00 +21°C° 0 mm 0 mps 705 mmHg 96%
08:00 +24°C° 0.2 mm 1 mps 705 mmHg 90%
09:00 +25°C° 0.2 mm 1 mps 706 mmHg 84%
10:00 +26°C° 0.2 mm 1 mps 706 mmHg 78%
11:00 +27°C° 0.7 mm 1 mps 705 mmHg 78%
12:00 +27°C° 0.7 mm 1 mps 705 mmHg 78%
13:00 +28°C° 0 mm 1 mps 705 mmHg 72%
14:00 +28°C° 0.8 mm 1 mps 704 mmHg 76%
15:00 +27°C° 0.8 mm 1 mps 704 mmHg 79%
16:00 +27°C° 0.8 mm 1 mps 703 mmHg 83%
17:00 +26°C° 0.6 mm 1 mps 703 mmHg 88%
18:00 +24°C° 0.6 mm 1 mps 703 mmHg 92%
19:00 +23°C° 0.6 mm 1 mps 703 mmHg 97%
20:00 +23°C° 0.4 mm 1 mps 704 mmHg 98%
21:00 +22°C° 0.4 mm 1 mps 704 mmHg 98%
22:00 +22°C° 0.4 mm 1 mps 705 mmHg 99%
23:00 +22°C° 0 mm 1 mps 704 mmHg 99%

Tomorrow, 13 July, Monday

Time Temperature Precipitation Wind Pressure Humidity
00:00 +21°C° 0 mm 1 mps 704 mmHg 99%
01:00 +21°C° 0 mm 1 mps 704 mmHg 99%
02:00 +21°C° 0 mm 1 mps 704 mmHg 99%
03:00 +21°C° 0 mm 1 mps 704 mmHg 99%
04:00 +22°C° 0 mm 1 mps 704 mmHg 98%
05:00 +22°C° 0 mm 1 mps 704 mmHg 98%
06:00 +22°C° 0 mm 1 mps 704 mmHg 98%
07:00 +22°C° 0 mm 1 mps 704 mmHg 98%
08:00 +23°C° 0.1 mm 1 mps 704 mmHg 92%
09:00 +24°C° 0.1 mm 1 mps 705 mmHg 86%
10:00 +26°C° 0.1 mm 1 mps 705 mmHg 80%
11:00 +27°C° 0.4 mm 1 mps 705 mmHg 75%
12:00 +28°C° 0.4 mm 1 mps 704 mmHg 69%
13:00 +29°C° 0.4 mm 1 mps 703 mmHg 63%
14:00 +29°C° 1.3 mm 1 mps 703 mmHg 72%
15:00 +28°C° 1.3 mm 1 mps 702 mmHg 80%
16:00 +27°C° 1.3 mm 1 mps 701 mmHg 89%
17:00 +25°C° 1.2 mm 1 mps 702 mmHg 91%
18:00 +24°C° 1.2 mm 1 mps 702 mmHg 94%
19:00 +23°C° 1.2 mm 1 mps 702 mmHg 96%
20:00 +23°C° 0.8 mm 1 mps 703 mmHg 97%
21:00 +22°C° 0.8 mm 1 mps 703 mmHg 98%
22:00 +22°C° 0.8 mm 1 mps 704 mmHg 98%
23:00 +22°C° 0 mm 1 mps 704 mmHg 98%

Day after tomorrow, 14 July, Tuesday

Time Temperature Precipitation Wind Pressure Humidity
00:00 +22°C° 0 mm 1 mps 704 mmHg 98%
01:00 +22°C° 0 mm 1 mps 703 mmHg 98%
02:00 +22°C° 0 mm 1 mps 703 mmHg 98%
03:00 +22°C° 0 mm 1 mps 703 mmHg 98%
04:00 +21°C° 0 mm 1 mps 703 mmHg 98%
05:00 +22°C° 0 mm 1 mps 703 mmHg 98%
06:00 +22°C° 0 mm 1 mps 703 mmHg 97%
07:00 +22°C° 0 mm 1 mps 703 mmHg 97%
08:00 +22°C° 0 mm 1 mps 704 mmHg 92%
09:00 +23°C° 0 mm 1 mps 704 mmHg 87%
10:00 +24°C° 0 mm 1 mps 705 mmHg 83%
11:00 +25°C° 0 mm 1 mps 704 mmHg 79%
12:00 +26°C° 0 mm 1 mps 704 mmHg 74%
13:00 +27°C° 0 mm 1 mps 704 mmHg 70%
14:00 +27°C° 0.7 mm 1 mps 703 mmHg 74%
15:00 +26°C° 0.7 mm 1 mps 702 mmHg 77%
16:00 +26°C° 0.7 mm 1 mps 701 mmHg 80%
17:00 +25°C° 1 mm 1 mps 702 mmHg 86%
18:00 +24°C° 1 mm 1 mps 702 mmHg 91%
19:00 +23°C° 1 mm 1 mps 702 mmHg 96%
20:00 +22°C° 0.5 mm 1 mps 703 mmHg 97%
21:00 +22°C° 0.5 mm 1 mps 703 mmHg 97%
22:00 +22°C° 0.5 mm 1 mps 704 mmHg 98%
23:00 +22°C° 0.3 mm 1 mps 703 mmHg 98%

15 July, Wednesday

Time Temperature Precipitation Wind Pressure Humidity
00:00 +22°C° 0.3 mm 1 mps 703 mmHg 98%
01:00 +21°C° 0.3 mm 1 mps 703 mmHg 99%
02:00 +21°C° 0.2 mm 1 mps 703 mmHg 99%
03:00 +21°C° 0.2 mm 1 mps 703 mmHg 99%
04:00 +21°C° 0.2 mm 1 mps 703 mmHg 99%
05:00 +21°C° 0 mm 1 mps 703 mmHg 98%
06:00 +19°C° 0 mm 0 mps 704 mmHg 98%
07:00 +19°C° 0 mm 0 mps 704 mmHg 98%
08:00 +20°C° 0.1 mm 0 mps 704 mmHg 92%
09:00 +24°C° 0.1 mm 1 mps 705 mmHg 87%
10:00 +25°C° 0.1 mm 1 mps 706 mmHg 82%
11:00 +25°C° 1.3 mm 1 mps 705 mmHg 84%
12:00 +25°C° 1.3 mm 1 mps 705 mmHg 86%
13:00 +26°C° 1.3 mm 1 mps 704 mmHg 88%
14:00 +25°C° 1.2 mm 1 mps 704 mmHg 90%
15:00 +25°C° 1.2 mm 1 mps 703 mmHg 92%
16:00 +24°C° 1.2 mm 1 mps 703 mmHg 94%
17:00 +23°C° 0.3 mm 1 mps 703 mmHg 95%
18:00 +23°C° 0.3 mm 1 mps 703 mmHg 96%
19:00 +22°C° 0.3 mm 1 mps 703 mmHg 97%
20:00 +22°C° 0 mm 1 mps 704 mmHg 98%
21:00 +22°C° 0 mm 1 mps 704 mmHg 98%
22:00 +21°C° 0 mm 1 mps 705 mmHg 99%
23:00 +21°C° 0 mm 1 mps 705 mmHg 99%

16 July, Thursday

Time Temperature Precipitation Wind Pressure Humidity
00:00 +21°C° 0 mm 1 mps 705 mmHg 99%
01:00 +21°C° 0 mm 1 mps 705 mmHg 99%
02:00 +21°C° 0 mm 1 mps 704 mmHg 99%
03:00 +19°C° 0 mm 0 mps 704 mmHg 99%
04:00 +19°C° 0 mm 0 mps 704 mmHg 99%
05:00 +19°C° 0 mm 0 mps 704 mmHg 99%
06:00 +19°C° 0 mm 0 mps 705 mmHg 98%
07:00 +19°C° 0 mm 0 mps 705 mmHg 98%
08:00 +22°C° 0 mm 1 mps 705 mmHg 94%
09:00 +23°C° 0 mm 1 mps 706 mmHg 90%
10:00 +24°C° 0 mm 1 mps 706 mmHg 86%
11:00 +25°C° 0.4 mm 1 mps 706 mmHg 83%
12:00 +26°C° 0.4 mm 1 mps 705 mmHg 80%
13:00 +27°C° 0.4 mm 1 mps 705 mmHg 77%
14:00 +26°C° 1.5 mm 1 mps 704 mmHg 82%
15:00 +25°C° 1.5 mm 2 mps 704 mmHg 87%
16:00 +25°C° 1.5 mm 2 mps 703 mmHg 93%
17:00 +24°C° 1 mm 2 mps 703 mmHg 94%
18:00 +23°C° 1 mm 2 mps 704 mmHg 95%
19:00 +22°C° 1 mm 1 mps 704 mmHg 97%
20:00 +22°C° 0.1 mm 1 mps 704 mmHg 97%
21:00 +22°C° 0.1 mm 1 mps 705 mmHg 98%
22:00 +21°C° 0.1 mm 1 mps 705 mmHg 98%
23:00 +21°C° 0 mm 1 mps 705 mmHg 98%

17 July, Friday

Time Temperature Precipitation Wind Pressure Humidity
00:00 +21°C° 0 mm 1 mps 705 mmHg 98%
01:00 +21°C° 0 mm 1 mps 705 mmHg 98%
02:00 +21°C° 0 mm 1 mps 704 mmHg 98%
03:00 +21°C° 0 mm 1 mps 704 mmHg 99%
04:00 +19°C° 0 mm 0 mps 704 mmHg 99%
05:00 +19°C° 0 mm 0 mps 704 mmHg 99%
06:00 +19°C° 0 mm 0 mps 705 mmHg 98%
07:00 +19°C° 0 mm 0 mps 705 mmHg 98%
08:00 +20°C° 0 mm 0 mps 705 mmHg 93%
09:00 +23°C° 0 mm 1 mps 706 mmHg 89%
10:00 +24°C° 0 mm 1 mps 706 mmHg 84%
11:00 +25°C° 0.2 mm 1 mps 705 mmHg 82%
12:00 +25°C° 0.2 mm 1 mps 705 mmHg 79%
13:00 +26°C° 0.2 mm 1 mps 704 mmHg 77%
14:00 +26°C° 1.3 mm 1 mps 704 mmHg 81%
15:00 +26°C° 1.3 mm 1 mps 703 mmHg 85%
16:00 +25°C° 1.3 mm 1 mps 703 mmHg 90%
17:00 +24°C° 0.8 mm 1 mps 703 mmHg 92%
18:00 +23°C° 0.8 mm 1 mps 703 mmHg 94%
19:00 +22°C° 0.8 mm 1 mps 703 mmHg 96%
20:00 +22°C° 0.2 mm 1 mps 704 mmHg 97%
21:00 +22°C° 0.2 mm 1 mps 704 mmHg 97%
22:00 +21°C° 0.2 mm 1 mps 704 mmHg 98%
23:00 +21°C° 0 mm 1 mps 704 mmHg 98%
Show more